Regional Weather Roundup
Issued by NWS

Home | Current Version | Previous Version | Graphics & Text | Print | Product List | Glossary Off
Versions: 1 2 3 4 5 6 7 8 9 10 11 12 13 14 15 16 17 18 19 20 21 22 23 24 25 26 27 28 29 30 31 32 33 34 35 36 37 38 39 40 41 42 43 44 45 46 47 48 49 50

000
ASUS43 KMKX 211000
RWRWI

WISCONSIN REGIONAL WEATHER ROUNDUP
NATIONAL WEATHER SERVICE MILWAUKEE/SULLIVAN WI
500 AM CDT TUE APR 21 2015

NOTE: "FAIR" INDICATES FEW OR NO CLOUDS BELOW 12,000 FEET WITH NO
SIGNIFICANT WEATHER AND/OR OBSTRUCTIONS TO VISIBILITY.

WIZ001-002-006>008-014>016-023>028-211100-
NORTHWEST WISCONSIN

CITY           SKY/WX    TMP DP  RH WIND       PRES   REMARKS
SUPERIOR ARPT  CLOUDY    33  28  80 W15G24    29.40S WCI  23
ASHLAND        CLOUDY    32  30  92 W12       29.36R WCI  23
HAYWARD        LGT SNOW  31  28  89 VRB6      29.39S FOG     WCI  25
SIREN          FLURRIES  32  28  85 W13G18    29.45S WCI  23
CUMBERLAND     LGT SNOW  32  30  93 W15       29.44R WCI  22
RICE LAKE      LGT SNOW  32  30  92 W10       29.46R WCI  24
CHETEK         LGT SNOW  32  30  92 W12G17    29.44S WCI  23
LADYSMITH      LGT SNOW  33  32  94 W9        29.42S WCI  26
EAU CLAIRE     NOT AVBL
MENOMONIE      CLOUDY    35  30  84 W9        29.48S WCI  27
NEW RICHMOND   CLOUDY    34  26  72 W14G24    29.48S WCI  25
OSCEOLA        CLOUDY    35  27  73 W17       29.52R WCI  25
$$

WIZ003>005-009-010-017-018-211100-
NORTH CENTRAL WISCONSIN

CITY           SKY/WX    TMP DP  RH WIND       PRES   REMARKS
MANITOWISH WTR LGT SNOW  31  31  98 W10G16    29.30S WCI  22
ARBOR VITAE    LGT SNOW  33  31  93 W9G17     29.31S WCI  25
WOODRUFF       LGT SNOW  33  31  93 W9G17     29.31S WCI  25
RHINELANDER    LGT SNOW  32  29  88 W15       29.33S FOG     WCI  22
EAGLE RIVER    LGT SNOW  32  31  94 W12       29.29F WCI  23
LAND O LAKES   LGT SNOW  32  31  96 W6        29.29S WCI  26
PHILLIPS       FLURRIES  32  28  88 W7        29.35S WCI  25
TOMAHAWK       CLOUDY    32  29  89 W6        29.36S WCI  26
MEDFORD        LGT SNOW  31  30  95 W13       29.39S WCI  22
MERRILL        CLOUDY    33  31  90 W10       29.37S WCI  25
$$

WIZ029-030-035-036-043>047-211100-
CENTRAL WISCONSIN

CITY           SKY/WX    TMP DP  RH WIND       PRES   REMARKS
WAUSAU         LGT SNOW  33  29  85 W16G25    29.38R FOG     WCI  23
MOSINEE        FLURRIES  32  32 100 W14       29.41S WCI  22
MARSHFIELD     LGT SNOW  33  30  88 W14G22    29.42S FOG     WCI  23
STEVENS POINT  FLURRIES  32  31  95 W12G17    29.42S WCI  23
WAUPACA        DRIZZLE   38  32  80 SW9       29.43S WCI  31
WAUTOMA        MIX PCPN  36  34  93 W13       29.46S WCI  27
WISC RAPIDS    FLURRIES  34  30  85 W8        29.45S WCI  27
CAMP DOUGLAS   LGT RAIN  34  34 100 W12       29.47F WCI  25
$$

WIZ011>013-019>022-031-037>040-048>050-211100-
NORTHEAST WISCONSIN

CITY           SKY/WX    TMP DP  RH WIND       PRES   REMARKS
ANTIGO         LGT SNOW  32  31  94 W14       29.35S WCI  22
SHAWANO        CLOUDY    37  32  80 SW9       29.40S WCI  31
OCONTO         CLOUDY    37  31  79 W10       29.38S WCI  29
STURGEON BAY   CLOUDY    37  28  70 SW13      29.40S WCI  29
GREEN BAY      CLOUDY    38  31  76 W13       29.41S WCI  30
MANITOWOC      NOT AVBL
APPLETON       CLOUDY    36  30  80 W12       29.43S WCI  27
CLINTONVILLE   CLOUDY    36  30  80 W9        29.40F WCI  29
OSHKOSH        CLOUDY    36  31  82 W12G18    29.44S WCI  28
$$

WIZ032>034-041-042-053>061-211100-
SOUTHWEST WISCONSIN

CITY           SKY/WX    TMP DP  RH WIND       PRES   REMARKS
LA CROSSE      CLOUDY    39  30  70 W21       29.52F WCI  29
SPARTA         CLOUDY    36  30  78 W14       29.50F WCI  27
VIROQUA        CLOUDY    34  32  93 W12       29.51S WCI  25
BOSCOBEL       CLOUDY    41  29  62 SW8       29.55F
PRAIRIE DU CHI CLOUDY    40  29  65 W13G18    29.57F WCI  32
PLATTEVILLE    CLOUDY    39  31  73 W16G26    29.57S WCI  30
$$

WIZ056-057-062-063-064-067-068-211100-
SOUTH CENTRAL WISCONSIN

CITY           SKY/WX    TMP DP  RH WIND       PRES   REMARKS
REEDSBURG      CLOUDY    35  32  88 W14       29.50S WCI  26
BARABOO/DELLS  MOCLDY    35  31  87 W9        29.49S WCI  27
LONE ROCK      NOT AVBL
MINERAL POINT  CLOUDY    37  32  81 W18G25    29.53F WCI  27
MADISON        MOCLDY    39  28  64 W8G16     29.51R WCI  33
MIDDLETON      MOCLDY    39  28  65 W18G24    29.51S WCI  29
WATERTOWN      CLOUDY    38  31  75 W12G18    29.49S WCI  31
MONROE         CLEAR     36  32  87 W18G24    29.54F WCI  25
JANESVILLE     PTCLDY    37  30  75 W15       29.54S WCI  28
$$

WIZ051-052-058>065-066-070>072-211100-
SOUTHEAST WISCONSIN

CITY           SKY/WX    TMP DP  RH WIND       PRES   REMARKS
MILWAUKEE      MOCLDY    39  29  67 SW17      29.51S WCI  30
WAUKESHA       CLOUDY    36  30  80 SW15G22   29.50S WCI  26
MILWAUKEE/TIMM CLOUDY    37  30  75 SW15G22   29.50S WCI  28
RACINE         PTCLDY    39  29  67 W10G20    29.53F WCI  32
BURLINGTON     PTCLDY    36  29  78 SW15      29.53S WCI  26
KENOSHA        FAIR      38  30  73 W15       29.53F WCI  29
FOND DU LAC    LGT SNOW  34  31  88 W9        29.46S FOG     WCI  27
SHEBOYGAN      CLOUDY    38  31  76 W14       29.44F WCI  30
WEST BEND      CLOUDY    37  30  75 W13G25    29.47S WCI  29
JUNEAU         CLOUDY    37  32  83 SW13      29.49S WCI  28
$$

LSZ147-162-211100-
LAKE SUPERIOR

STATION/POSITION TIME  TEMP    WIND        PRES    WAVE
                       AIR SEA DIR/SP/G            HT/PER
                 (UTC) (F)     (DEG/KT/KT) (MB)    (FT/S)
DEVILS ISLAND    0900   35     260/ 20/ 25  992.9R
PORT WING        0940   35     270/ 18/ 23  994.9R
SAXON HARBOR     0940   33     240/  8/ 12  993.6R
$$

LMZ867-665-643>646-211100-
LAKE MICHIGAN

STATION/POSITION TIME  TEMP    WIND        PRES    WAVE
                       AIR SEA DIR/SP/G            HT/PER
                 (UTC) (F)     (DEG/KT/KT) (MB)    (FT/S)
CHAMBERS ISLAND  0900   38     220/  8/ 13  994.9S
NORTHPORT PIER   0900   38     230/  4/ 11  994.6S
SISTER BAY       0932   39     250/ 17/ 19   N/A
KEWAUNEE LAKESHO 0900   39     250/  6/ 11  995.3F
SHEBOYGAN LAKESH 0900   40     240/ 14/ 18  997.8S
PORT WASHINGTON  0940   41     260/ 10/ 17  999.0F
MILWAUKEE LAKESH 0900   41     250/ 15/ 20   N/A
KENOSHA   LAKESH 0900   41     240/ 15/ 21 1000.7S
$$

TC  - TEMPERATURE IN CELSIUS
VSB - VISIBILITY IN STATUTE MILES
WCI - WIND CHILL INDEX
HX  - HEAT INDEX




USA.gov is the U.S. government's official web portal to all federal, state and local government web resources and services.